New Paris, IN

12:15 PM EST on February 12, 2016 (GMT -0500)
Goshen Municipal

Weather History for KGSH - January, 2014

Change the Weather History Date:

Monday, January 20, 2014

  Actual Average Record
Temperature  
Mean Temperature 29 °F -  
Max Temperature 37 °F 29 °F 56 °F (1951)
Min Temperature 18 °F 15 °F -22 °F (1985)
Degree Days  
Heating Degree Days 36    
Moisture  
Dew Point 23 °F    
Average Humidity 76    
Maximum Humidity 86    
Minimum Humidity 65    
Precipitation  
Precipitation 0.00 in - - ()
Sea Level Pressure  
Sea Level Pressure 29.83 in    
Wind  
Wind Speed 11 mph (NW)    
Max Wind Speed 18 mph    
Max Gust Speed 28 mph    
Visibility 8 miles    
Events Snow    
Averages and records for this station are not official NWS values.
T = Trace of Precipitation, MM = Missing Value Source: NWS Daily Summary

Daily Weather History Graph

Daily Weather History Graph

Search for Another Location

Airport or City:

Trip Planner

Search our weather history database for the weather conditions in past years. The results will help you decide how hot, cold, wet, or windy it might be!

Date:

Astronomy

Jan. 20, 2014 Rise Set
Actual Time 8:04 AM EST 5:44 PM EST
Civil Twilight 7:34 AM EST 6:14 PM EST
Nautical Twilight 7:00 AM EST 6:48 PM EST
Astronomical Twilight 6:27 AM EST 7:21 PM EST
Moon 10:22 PM EST (1/20) 10:00 AM EST (1/20)
Length of Visible Light 10h 39m
Length of Day
9h 39m
Waning Gibbous, 83% of the Moon is Illuminated
Jan 20
Waning Gibbous
Jan 24
Last Quarter
Jan 30
New
Feb 6
First Quarter
Feb 14
Full

Hourly Weather History & Observations

Time (EST) Temp. Windchill Dew Point Humidity Pressure Visibility Wind Dir Wind Speed Gust Speed Precip Events Conditions
12:53 AM 37.0 °F 28.5 °F 26.1 °F 65% 29.54 in 10.0 mi WSW 13.8 mph - N/A   Clear
1:53 AM 36.0 °F 26.7 °F 26.1 °F 67% 29.55 in 10.0 mi West 15.0 mph - N/A   Partly Cloudy
2:24 AM 37.4 °F 28.5 °F 28.4 °F 70% 29.54 in 10.0 mi West 15.0 mph - N/A   Overcast
2:53 AM 36.0 °F 28.0 °F 28.0 °F 73% 29.58 in 10.0 mi West 11.5 mph - N/A   Overcast
3:41 AM 37.4 °F 28.2 °F 28.4 °F 70% 29.59 in 10.0 mi WNW 16.1 mph - N/A   Overcast
3:53 AM 36.0 °F 27.1 °F 28.9 °F 76% 29.62 in 10.0 mi WNW 13.8 mph 21.9 mph N/A   Overcast
4:34 AM 35.6 °F 26.6 °F 28.4 °F 75% 29.63 in 10.0 mi WNW 13.8 mph - N/A   Overcast
4:53 AM 36.0 °F 27.5 °F 28.0 °F 73% 29.67 in 10.0 mi WNW 12.7 mph - N/A   Overcast
5:53 AM 35.1 °F 25.5 °F 28.9 °F 78% 29.69 in 9.0 mi NW 15.0 mph - N/A   Overcast
6:53 AM 34.0 °F 23.4 °F 27.0 °F 75% 29.73 in 10.0 mi NNW 17.3 mph 27.6 mph N/A   Overcast
7:38 AM 30.2 °F 19.3 °F 23.0 °F 75% 29.76 in 10.0 mi NNW 15.0 mph - N/A   Overcast
7:53 AM 30.9 °F 22.8 °F 23.0 °F 72% 29.80 in 10.0 mi NNW 9.2 mph - N/A   Overcast
8:53 AM 30.0 °F 20.5 °F 21.0 °F 69% 29.83 in 10.0 mi NNW 11.5 mph - N/A   Overcast
9:53 AM 30.0 °F 22.4 °F 21.0 °F 69% 29.84 in 10.0 mi North 8.1 mph - N/A   Overcast
10:53 AM 30.0 °F 26.5 °F 21.0 °F 69% 29.87 in 10.0 mi North 3.5 mph - N/A   Overcast
11:53 AM 30.0 °F 25.2 °F 23.0 °F 75% 29.88 in 10.0 mi WNW 4.6 mph - N/A   Overcast
12:53 PM 30.9 °F 25.2 °F 24.1 °F 76% 29.88 in 10.0 mi SW 5.8 mph - N/A   Overcast
1:07 PM 30.2 °F 24.3 °F 24.8 °F 80% 29.85 in 10.0 mi WSW 5.8 mph - N/A   Overcast
1:18 PM 30.2 °F 25.4 °F 24.8 °F 80% 29.85 in 10.0 mi West 4.6 mph - N/A   Overcast
1:40 PM 30.2 °F 25.4 °F 24.8 °F 80% 29.84 in 10.0 mi WSW 4.6 mph - N/A   Overcast
1:53 PM 32.0 °F - 24.1 °F 73% 29.87 in 10.0 mi Calm Calm - N/A   Overcast
2:10 PM 32.0 °F 28.7 °F 24.8 °F 75% 29.84 in 10.0 mi SSW 3.5 mph - N/A   Overcast
2:39 PM 32.0 °F 28.7 °F 24.8 °F 75% 29.84 in 10.0 mi SW 3.5 mph - N/A   Overcast
2:53 PM 33.1 °F 27.7 °F 25.0 °F 72% 29.86 in 10.0 mi WSW 5.8 mph - N/A   Overcast
3:07 PM 33.8 °F 28.6 °F 24.8 °F 70% 29.84 in 10.0 mi SW 5.8 mph - N/A   Overcast
3:53 PM 33.1 °F 27.7 °F 25.0 °F 72% 29.87 in 10.0 mi WSW 5.8 mph - N/A   Mostly Cloudy
4:53 PM 33.1 °F 28.7 °F 26.1 °F 75% 29.89 in 10.0 mi NW 4.6 mph - N/A   Overcast
5:53 PM 32.0 °F 25.6 °F 25.0 °F 75% 29.91 in 10.0 mi North 6.9 mph - N/A   Overcast
6:53 PM 28.9 °F 18.6 °F 23.0 °F 78% 29.93 in 10.0 mi NNE 12.7 mph - N/A   Overcast
7:31 PM 26.6 °F 15.2 °F 21.2 °F 80% 29.92 in 10.0 mi NNE 13.8 mph - N/A   Overcast
7:53 PM 26.1 °F 15.6 °F 21.0 °F 81% 29.96 in 10.0 mi NE 11.5 mph - N/A   Overcast
8:53 PM 24.1 °F 12.5 °F 19.0 °F 81% 29.98 in 7.0 mi NNE 12.7 mph - 0.00 in Snow Light Snow
9:18 PM 24.8 °F 13.4 °F 19.4 °F 80% 29.95 in 4.0 mi NNE 12.7 mph - 0.00 in Snow Light Snow
9:38 PM 23.0 °F 12.4 °F 17.6 °F 80% 29.95 in 5.0 mi NNE 10.4 mph - 0.00 in Snow Light Snow
9:53 PM 23.0 °F 11.7 °F 18.0 °F 81% 29.99 in 4.0 mi NNE 11.5 mph - 0.00 in Snow Light Snow
10:43 PM 21.2 °F 9.5 °F 15.8 °F 80% 29.96 in 2.5 mi NNE 11.5 mph - 0.00 in Snow Light Snow
10:45 PM 21.2 °F 9.5 °F 15.8 °F 80% 29.95 in 3.0 mi NNE 11.5 mph - 0.00 in Snow Light Snow
10:53 PM 21.9 °F 9.8 °F 16.0 °F 78% 29.99 in 3.0 mi NNE 12.7 mph - 0.00 in Snow Light Snow
11:04 PM 21.2 °F 9.5 °F 17.6 °F 86% 29.96 in 2.5 mi NNE 11.5 mph - 0.00 in Snow Light Snow
11:17 PM 21.2 °F 8.3 °F 17.6 °F 86% 29.95 in 1.5 mi NNE 13.8 mph - 0.00 in Snow Light Snow
11:32 PM 21.2 °F 8.9 °F 17.6 °F 86% 29.96 in 1.5 mi NNE 12.7 mph - 0.00 in Snow Light Snow
11:53 PM 18.0 °F 2.2 °F 12.9 °F 81% 30.00 in 1.8 mi NNE 18.4 mph - 0.00 in Snow Light Snow